Preview of NWS' New Version of Forecast
This preview is not operational and should not be used for support decisions.
Latest weather observations around

Decorah (KDEH)

Using English Units (Switch to International System of Units)
Date/ Time (CDT) Wind (mph) Vis. (mi) Weather Sky Cond. Temp (°F) Rel. Humidity Wind Chill (°F) Heat Index (°F) Pressure Precip. (in)
Air Dwpt 6 hour Altimeter (inHg) Sea level (inHg) 1 hr 3 hr 6 hr
Max Min
Mar 24 10:35 5 9 Mostly Cloudy SCT013 BKN049 43 41     93% 40   30.07        
Mar 24 10:15 NE 3 9 Mostly Cloudy BKN048 41 41     100% 39   30.07        
Mar 24 09:55 NNE 5 6 Light Rain BKN046 41 41     100% 38   30.07   0    
Mar 24 09:35 NNE 6 6 Light Rain SCT046 SCT050 39 39     100% 35   30.07        
Mar 24 09:15 NE 6 3 Light Rain FEW042 BKN049 41 39     93% 37   30.07        
Mar 24 08:55 NE 6 10 Cloudy OVC047 41 39     93% 37   30.07        
Mar 24 08:35 Calm 9 Cloudy OVC047 39 39     100%     30.07        
Mar 24 08:15 Calm 10 Cloudy OVC047 39 39     100%     30.06        
Mar 24 07:55 E 3 10 Cloudy OVC046 39 39     100% 37   30.06        
Mar 24 07:35 Calm 10 Cloudy OVC045 39 39     100%     30.06        
Mar 24 07:15 Calm 10 Cloudy OVC045 39 39     100%     30.05        
Mar 24 06:55 ESE 3 10 Cloudy OVC043 39 39     100% 37   30.05        
Mar 24 06:35 Calm 10 Cloudy OVC044 41 39     93%     30.05        
Mar 24 06:15 Calm 10 Cloudy OVC047 39 39     100%     30.05        
Mar 24 05:55 Calm 10 Cloudy OVC049 41 39     93%     30.05        
Mar 24 05:35 Calm 10 Cloudy OVC050 41 41     100%     30.06        
Mar 24 05:15 Calm 10 Cloudy OVC055 41 41     100%     30.06        
Mar 24 04:55 S 6 10 Cloudy BKN055 OVC070 41 41     100% 37   30.07        
Mar 24 04:35 S 6 10 Cloudy BKN055 OVC070 41 39     93% 37   30.07        
Mar 24 04:15 SSE 5 10 Cloudy BKN055 OVC060 41 39     93% 38   30.08        
Mar 24 03:55 SSE 6 10 Cloudy SCT047 OVC060 41 39     93% 37   30.08        
Mar 24 03:35 SSE 5 10 Cloudy FEW032 OVC047 41 37     87% 38   30.08        
Mar 24 03:15 SSE 5 10 Cloudy SCT033 OVC045 41 36     81% 38   30.09        
Mar 24 02:55 Calm 10 Cloudy SCT034 OVC047 41 36     81%     30.1        
Mar 24 02:35 SSE 3 10 Cloudy SCT034 SCT049 OVC060 43 36     76% 41   30.1        
Mar 24 02:15 SSE 5 10 Cloudy FEW031 SCT047 OVC060 41 36     81% 38   30.1        
Mar 24 01:55 Calm 10 Cloudy FEW034 BKN045 OVC070 41 36     81%     30.1        
Mar 24 01:35 Calm 10 Cloudy SCT046 BKN075 OVC110 43 34     70%     30.11        
Mar 24 01:15 SE 3 10 Cloudy SCT075 OVC100 43 36     76% 41   30.11        
Mar 24 00:55 SE 5 10 Cloudy FEW075 BKN100 OVC120 43 36     76% 40   30.11        
Mar 24 00:35 Calm 10 Cloudy FEW075 OVC095 43 36     76%     30.11        
Mar 24 00:15 SE 5 10 Cloudy OVC095 43 36     76% 40   30.12        
Mar 23 23:55 SE 6 10 Cloudy OVC095 43 36     76% 39   30.12        
Mar 23 23:35 SSE 6 10 Cloudy OVC095 43 36     76% 39   30.12        
Mar 23 23:15 SSE 5 10 Cloudy BKN100 OVC120 43 36     76% 40   30.12        
Mar 23 22:55 SSE 6 10 Cloudy OVC100 45 36     70% 41   30.12        
Mar 23 22:35 SE 5 10 Cloudy FEW065 SCT075 OVC110 45 36     70% 42   30.11        
Mar 23 22:15 SE 5 10 Cloudy FEW065 BKN075 OVC090 45 36     70% 42   30.12        
Mar 23 21:55 SSE 5 10 Cloudy SCT080 BKN090 OVC120 45 36     70% 42   30.12        
Mar 23 21:35 SE 5 10 Cloudy BKN100 OVC120 45 36     70% 42   30.12        
Mar 23 21:15 SSE 5 10 Cloudy OVC100 45 36     70% 42   30.12        
Mar 23 20:55 SSE 6 10 Cloudy OVC095 45 37     76% 41   30.13        
Mar 23 20:35 SSE 3 10 Cloudy OVC100 45 37     76% 43   30.13        
Mar 23 20:15 SE 3 10 Mostly Cloudy BKN110 46 37     71% 45   30.13        
Mar 23 19:55 ESE 6 10 Mostly Cloudy SCT100 BKN120 46 37     71% 43   30.13        
Mar 23 19:35 Calm 10 Mostly Clear FEW120 46 37     71%     30.13        
Mar 23 19:15 S 3 10 Clear CLR 48 36     62% 47   30.14        
Mar 23 18:55 S 5 10 Clear CLR 48 36     62% 46   30.14        
Mar 23 18:35 S 3 10 Clear CLR 50 36     58%     30.15        
Mar 23 18:15 SSW 3 10 Clear CLR 50 36     58%     30.15        
Mar 23 17:55 S 6 10 Clear CLR 50 34     54%     30.15        
Mar 23 17:35 S 6 10 Clear CLR 50 34     54%     30.15        
Mar 23 17:15 3 10 Clear CLR 50 34     54%     30.15        
Mar 23 16:55 SSW 8 10 Clear CLR 52 34     50%     30.15        
Mar 23 16:35 SW 9 10 Clear CLR 52 34     50%     30.16        
Mar 23 16:15 7 10 Clear CLR 52 36     54%     30.16        
Mar 23 15:55 6 10 Clear CLR 52 34     50%     30.17        
Mar 23 15:35 7 10 Clear CLR 52 34     50%     30.17        
Mar 23 15:15 SSE 7 10 Clear CLR 52 32     47%     30.17        
Mar 23 14:55 SSW 7 10 Clear CLR 52 34     50%     30.18        
Mar 23 14:35 6 10 Clear CLR 52 34     50%     30.18        
Mar 23 14:15 SW 5 10 Clear CLR 50 32     50%     30.19        
Mar 23 13:55 SSW 10 10 Clear CLR 50 32     50%     30.2        
Mar 23 13:35 7 10 Clear CLR 50 32     50%     30.21        
Mar 23 13:15 S 8 10 Clear CLR 48 32     53% 45   30.21        
Mar 23 12:55 S 11 10 Clear CLR 48 34     57% 43   30.21        
Mar 23 12:35 S 8 10 Clear CLR 46 34     61% 42   30.22        
Mar 23 12:15 SSW 8 10 Clear CLR 46 34     61% 42   30.22        
Mar 23 11:55 S 7 10 Clear CLR 45 34     66% 41   30.22        
Mar 23 11:35 7 10 Clear   43 36     76% 39   30.23        
Mar 23 11:15 6 10 Clear   43 36     76% 39   30.23        
Mar 23 10:55 5 10 Clear   41 34     75% 38   30.23        
Mar 23 10:35 SSE 7 10 Clear CLR 39 34     81% 34   30.23        
Mar 23 10:15 SSE 6 10 Clear CLR 37 34     87% 33   30.23        
Mar 23 09:55 SSE 7 10 Clear CLR 37 34     87% 32   30.23        
Mar 23 09:35 S 7 10 Clear CLR 36 32     87% 30   30.24        
Mar 23 09:15 SSE 6 10 Clear CLR 36 32     87% 31   30.25        
Mar 23 08:55 S 7 10 Clear   34 32     93% 28   30.24        
Mar 22 23:15 Calm 10 Clear CLR 34 21     60%     30.21        
Mar 22 22:55 Calm 10 Clear CLR 36 21     55%     30.2        
Mar 22 22:35 Calm 10 Clear CLR 37 21     52%     30.21        
Mar 22 22:15 Calm 10 Clear CLR 37 21     52%     30.21        
Mar 22 21:55 Calm 10 Clear CLR 39 21     48%     30.21        
Mar 22 21:35 N 5 10 Clear CLR 39 21     48% 36   30.2        
Mar 22 21:15 N 6 10 Clear CLR 39 21     48% 35   30.2        
Mar 22 20:55 NNE 6 10 Clear CLR 39 21     48% 35   30.19        
Mar 22 20:35 N 3 10 Clear CLR 39 21     48% 37   30.19        
Mar 22 20:15 N 3 10 Clear CLR 41 21     45% 39   30.18        
Mar 22 19:55 N 5 10 Clear CLR 41 23     48% 38   30.18        
Mar 22 19:35 NNW 5 10 Clear CLR 43 23     45% 40   30.18        
Mar 22 19:15 N 7 10 Clear CLR 43 23     45% 39   30.18        
Mar 22 18:55 NNW 9 10 Clear CLR 45 25     45% 40   30.18        
Mar 22 18:35 NNW 11 10 Clear CLR 45 25     45% 39   30.18        
Mar 22 18:15 NNW 9 10 Clear CLR 46 27     46% 42   30.18        
Mar 22 17:55 NW 8 10 Clear CLR 46 27     46% 42   30.17        
Mar 22 17:35 NW 9 10 Clear CLR 46 27     46% 42   30.17        
Mar 22 17:15 NNW 11 10 Clear CLR 46 28     49% 41   30.17        
Mar 22 16:55 NW 9 10 Clear CLR 46 28     49% 42   30.17        
Mar 22 16:35 NNW 9 10 Clear CLR 46 28     49% 42   30.17        
Mar 22 16:15 NW 7 10 Clear CLR 48 27     43% 45   30.17        
Mar 22 15:55 NNW 7 10 Clear CLR 48 27     43% 45   30.17        
Mar 22 15:35 NNW 14 10 Clear CLR 48 27     43% 43   30.17        
Mar 22 15:15 NNE 9 10 Clear CLR 46 25     42% 42   30.16        
Mar 22 14:55 NNW 11 10 Clear CLR 48 27     43% 43   30.16        
Mar 22 14:35 N 9 10 Clear CLR 46 27     46% 42   30.16        
Mar 22 14:15 NNW 10 10 Clear CLR 46 28     49% 41   30.16        
Mar 22 13:55 N 7 10 Clear CLR 46 30     53% 43   30.17        
Mar 22 13:35 N 11 10 Clear CLR 46 28     49% 41   30.17        
Mar 22 13:15 NW 14 10 Clear CLR 46 28     49% 40   30.17        
Mar 22 12:55 N 13 10 Clear CLR 46 30     53% 41   30.17        
Mar 22 12:35 N 8 10 Clear CLR 45 30     57% 40   30.18        
Mar 22 12:15 NNW 13 10 Clear CLR 45 30     57% 38   30.18        
Mar 22 11:55 NNE 10 10 Clear CLR 45 30     57% 39   30.18        
Mar 22 11:35 N 9 10 Clear CLR 45 30     57% 40   30.18        
Mar 22 11:15 N 11 10 Clear CLR 45 28     53% 39   30.17        
Mar 22 10:55 N 10 10 Clear CLR 43 30     61% 37   30.17        
Mar 22 10:35 N 9 10 Clear CLR 43 30     61% 37   30.17        
Mar 22 10:15 NNW 9 10 Clear CLR 41 32     70% 35   30.17        
Mar 22 09:55 NNW 9 10 Clear CLR 39 32     75% 33   30.16        
Mar 22 09:35 NNW 10 10 Clear CLR 39 34     81% 33   30.16        
Mar 22 09:15 NNW 7 10 Clear CLR 37 34     87% 32   30.15        
Mar 22 08:55 NW 7 10 Clear CLR 36 34     93% 30   30.15        
Mar 22 08:35 NNW 7 10 Clear CLR 36 34     93% 30   30.15        
Mar 22 08:15 NNW 8 10 Clear CLR 34 32     93% 27   30.14        
Mar 22 07:55 NNW 8 10 Clear CLR 34 32     93% 27   30.13        
Mar 22 07:35 NNW 8 10 Clear CLR 32 32     100% 25   30.12        
Mar 22 07:15 NW 9 10 Clear CLR 32 32     100% 24   30.11        
Mar 22 06:55 NNW 9 10 Clear CLR 32 32     100% 24   30.1        
Mar 22 06:35 NW 7 10 Clear CLR 34 32     93% 28   30.1        
Mar 22 06:15 NW 8 10 Clear CLR 34 34     100% 27   30.09        
Mar 22 05:55 NW 6 10 Clear CLR 34 34     100% 29   30.09        
Mar 22 05:35 3 10 Clear CLR 34 34     100% 31   30.08        
Mar 22 05:15 NW 7 10 Clear CLR 34 34     100% 28   30.07        
Mar 22 04:55 NNW 7 10 Clear CLR 34 34     100% 28   30.06        
Mar 22 04:35 NNW 7 10 Clear CLR 36 34     93% 30   30.05        
Mar 22 04:15 NW 7 10 Clear CLR 36 34     93% 30   30.05        
Mar 22 03:55 NNW 8 10 Clear CLR 36 36     100% 29   30.05        
Mar 22 03:35 NNW 6 10 Clear CLR 36 34     93% 31   30.05        
Mar 22 03:15 NNW 5 10 Clear CLR 36 36     100% 32   30.05        
Mar 22 02:55 NW 6 10 Clear CLR 36 36     100% 31   30.04        
Mar 22 02:35 NW 6   Clear   36 36     100% 31   30.04        
Mar 22 02:15 WNW 3 10 Clear CLR 36 36     100% 33   30.04        
Mar 22 01:55 WNW 5 10 Clear CLR 36 36     100% 32   30.04        
Mar 22 01:35 WNW 6 10 Clear CLR 36 36     100% 31   30.03        
Mar 22 01:15 WNW 5 10 Clear CLR 36 36     100% 32   30.03        
Mar 22 00:55 WNW 6 10 Clear CLR 37 36     93% 33   30.03        
Mar 22 00:35 WNW 6 10 Clear CLR 37 37     100% 33   30.03        
Mar 22 00:15 WNW 8 10 Clear CLR 37 37     100% 31   30.02        
Mar 21 23:55 5 10 Clear CLR 37 37     100% 34   30.02        
Mar 21 23:35 WNW 3 10 Clear CLR 37 37     100% 35   30.02        
Mar 21 23:15 5 10 Clear CLR 39 37     93% 36   30.02        
Mar 21 22:55 W 3 10 Clear CLR 39 39     100% 37   30.02        
Mar 21 22:35 WNW 7 10 Clear CLR 39 39     100% 34   30.01        
Mar 21 22:15 WNW 7 10 Clear CLR 39 39     100% 34   30        
Mar 21 21:55 5 10 Clear CLR 39 39     100% 36   30        
Mar 21 21:35 5 10 Clear CLR 39 39     100% 36   29.99        
Mar 21 21:15 3 10 Clear CLR 39 39     100% 37   29.98        
Mar 21 20:55 W 6 10 Clear CLR 39 39     100% 35   29.98        
Mar 21 20:35 W 7 10 Clear CLR 41 39     93% 36   29.98        
Mar 21 20:15 6 10 Clear CLR 41 39     93% 37   29.98        
Mar 21 19:55 6 10 Clear CLR 43 39     87% 39   29.98        
Mar 21 19:35 W 8 10 Clear CLR 43 39     87% 38   29.98        
Mar 21 19:15 6 10 Clear CLR 45 37     76% 41   29.99        
Mar 21 18:55 5 10 Clear CLR 45 37     76% 42   29.99        
Mar 21 18:35 5 10 Clear CLR 46 37     71% 44   29.99        
Mar 21 18:15 WNW 8 10 Clear CLR 46 37     71% 42   30        
Mar 21 17:55 7 10 Clear CLR 46 37     71% 43   30        
Mar 21 17:35 WNW 9 10 Clear CLR 48 37     66% 44   30        
Mar 21 17:15 W 10 10 Clear CLR 48 37     66% 44   30        
Mar 21 16:55 W 13 10 Clear CLR 48 37     66% 43   30        
Mar 21 16:35 W 8 10 Clear CLR 46 36     66% 42   30        
Mar 21 16:15 W 13 10 Clear CLR 48 37     66% 43   30.01        
Mar 21 15:55 W 11 10 Clear CLR 46 37     71% 41   30.02        
Mar 21 15:35 WNW 8 10 Clear CLR 46 37     71% 42   30.03        
Mar 21 15:15 7 10 Clear CLR 46 36     66% 43   30.03        
Mar 21 14:55 WNW 13 10 Clear CLR 46 36     66% 41   30.03        
Mar 21 14:35 W 9 10 Clear CLR 45 36     70% 40   30.04        
Mar 21 14:15 NW 10 10 Clear CLR 45 36     70% 39   30.05        
Mar 21 13:55 NW 9 10 Clear CLR 45 34     66% 40   30.06        
Mar 21 13:35 WNW 14 10 Clear CLR 45 34     66% 38   30.07        
Mar 21 13:15 WNW 10 10 Mostly Clear FEW030 45 34     66% 39   30.08        
Mar 21 12:55 WNW 11 10 Mostly Clear FEW030 45 34     66% 39   30.08        
Mar 21 12:35 NW 11 10 Clear   43 34     70% 37   30.08        
Mar 21 12:15 NW 15 10 Clear   43 34     70% 35   30.09        
Mar 21 11:55 NW 7 10 Clear   43 34     70% 39   30.09        
Mar 21 11:35 NW 9 10 Clear   43 34     70% 37   30.1        
Mar 21 11:15 NW 11 10 Clear   41 34     75% 34   30.1        
Mar 21 10:55 NNW 9 10 Clear   41 36     81% 35   30.1        
Notice The following observation data may not be complete
May 15 13:15   10 Clear CLR          %              
May 15 10:15 7 10 Clear CLR 68 55     64%     30.01        
Notice The following observation data may not be complete
May 14 17:15   10 Partly Cloudy SCT110          %              
May 14 00:35 Calm 3 Fog/Mist FEW006 BKN048 OVC095 55 55     100%     29.93        
May 13 13:55 6 8 Cloudy OVC007 54 52     94%     29.99        
May 13 08:55 ESE 5 9 Cloudy OVC005 48 48     100% 46   30.05        
May 12 22:15 E 8 8 Cloudy OVC029 48 46     93% 45   30.07        
May 12 18:55 ENE 8 10 Cloudy OVC018 54 50     88%     30.06        
May 12 13:55 ESE 8 10 Cloudy OVC024 55 48     77%     30.07        
May 12 08:35 E 11 10 Clear   46 45     93% 41   30.06        
May 12 04:35 ENE 10 10 Cloudy OVC006 43 43     100% 37   30.03        
May 12 01:55 ENE 9 10 Cloudy OVC005 43 43     100% 37   30        
May 12 01:15 ENE 10 10 Cloudy OVC005 43 43     100% 37   30        
May 11 21:55 ENE 9 10 Cloudy OVC007 45 45     100% 40   30.01        
May 11 16:15 ENE 14 10 Cloudy OVC007 46 45     93% 40   29.92        
Notice The following observation data may not be complete
May 11 13:15   9 Mostly Cloudy BKN007 BKN012          %              
Jun 12 06:35 6 10 Clear CLR 75 66     74%   76 29.85        
Jun 12 03:35 SSW 10 10 Cloudy BKN050 BKN060 OVC110 79 68     70%   80 29.82        
Notice The following observation data may not be complete
Jun 12 02:15   10 Cloudy SCT055 BKN070 OVC080          %              
Jun 11 21:35 SSW 13 10 Mostly Clear FEW060 84 66     55%   87 29.73        
Jun 11 21:15 SSW 13 10 Clear CLR 84 64     52%   86 29.72        
Jun 11 13:55 SSE 16 10 Clear CLR 88 68     52%   91 29.77        
Notice The following observation data may not be complete
Jun 11 10:35   10 Clear CLR          %              
Jun 11 10:15 S 10 10 Partly Cloudy SCT050 77 68     74%   78 29.79        
Jun 10 16:15 SSW 15 10 Clear CLR 90 61     38%   90 29.61        
Jun 10 11:15 S 17 10 Clear CLR 81 61     51%   81 29.66        
Jun 10 06:55 S 10 10 Clear CLR 68 57     68%     29.72        
Notice The following observation data may not be complete
Jun 10 01:35   10 Mostly Clear FEW037          %              
Jun 09 14:15 5 10 Clear CLR 84 55     37%   83 29.78        
Jun 09 05:15 Calm 10 Clear CLR 61 55     82%     29.8        
Jun 08 23:35 Calm 10 Clear   70 55     60%     29.81        
Jun 08 17:35 8 10 Clear CLR 82 54     37%   81 29.79        
Jun 08 08:35 S 8 10 Partly Cloudy FEW075 SCT100 SCT110 64 50     60%     30        
Notice The following observation data may not be complete
Jun 08 01:15   10 Partly Cloudy FEW037 SCT045 SCT065          %              
Jun 07 19:15 6 10 Clear CLR 79 43     28%   78 30.04        
Jun 07 09:55 6 10 Clear CLR 72 48     43%   71 30.16        
Jun 06 15:15 NE 7 10 Clear CLR 75 45     34%   74 30.08        
Jun 06 05:35 E 3 10 Clear CLR 55 50     82%     30.08        
Notice The following observation data may not be complete
Jun 05 23:15   10 Clear CLR          %              
Jun 05 18:35 E 10 10 Clear CLR 77 50     39%   76 29.94